Location: Wingham
(51.2667°N, 1.2167°E)
Time: 14:04:00
(UTC+00:00)

Daily predictions for brighter satellites

Satellite Brightness Start Highest point End
(mag) Time Altitude Azimuth Time Altitude Azimuth Time Altitude Azimuth
Cosmos 2322 4.3 19:18:19 10° NNW 19:23:43 43° NE 19:29:05 10° ESE
SL-8 R/B 3.9 19:18:57 10° WSW 19:23:44 62° S 19:28:30 10° E
Ariane Rocket 3.3 19:18:59 10° SE 19:23:53 52° ENE 19:28:48 10° N
Cosmos 1441 Rocket 3.3 19:20:03 10° NNW 19:24:00 88° E 19:27:58 10° SSE
SAR-Lupe-4 3.6 19:22:23 10° NNE 19:26:00 88° WNW 19:29:36 10° SSW
Cosmos 2082 Rocket 3.8 19:21:17 10° WSW 19:26:37 40° NW 19:31:56 10° NNE
Cosmos 2228 3.4 19:23:05 10° SSE 19:27:11 42° E 19:31:17 10° NNE
ATLAS 2AS CENTAUR R/B 3.7 19:20:44 10° SSE 19:27:13 29° ESE 19:33:38 10° ENE
Cosmos 1184 Rocket 2.9 19:25:40 10° NNW 19:28:53 77° W 19:32:03 10° S
Cosmos 1953 Rocket 4.1 19:24:50 10° N 19:29:01 41° ENE 19:33:09 10° SE
Cosmos 2034 Rocket 4.2 19:25:35 10° SSE 19:31:34 53° E 19:37:39 10° NNE
Meteor 2-10 Rocket 4.1 19:34:57 10° SSE 19:39:43 38° E 19:44:41 10° NNE
Nadezhda 4 Rocket 4.0 19:34:17 10° N 19:40:40 78° E 19:46:57 10° SSE
Cosmos 1464 Rocket 4.0 19:35:45 10° S 19:42:05 84° E 19:48:22 10° N
Resurs 1-3 3.7 19:38:29 10° SSE 19:42:48 60° ENE 19:47:09 10° N
OBJECT-B 0.8 19:39:50 10° S 19:43:02 82° WSW 19:46:17 10° NNW
SL-16 R/B 4.4 19:41:57 10° N 19:45:03 15° NNE 19:48:08 10° ENE
Cosmos 1825 3.3 19:43:01 10° N 19:46:19 28° ENE 19:49:06 13° SE
COSMOS 2428 3.3 19:42:48 10° NNW 19:48:20 45° NE 19:53:17 13° ESE
Cosmos 1825 Rocket 3.6 19:44:30 10° N 19:48:54 88° WSW 19:53:17 10° S
Cosmos 1300 3.1 19:47:52 10° SSW 19:51:40 68° WNW 19:55:29 10° N
IRS-1A Rocket 4.3 19:46:14 10° SSE 19:51:48 89° ENE 19:57:30 10° NNW
Lacrosse 5 rocket 1.3 19:50:13 10° SW 19:54:15 69° SE 19:58:32 10° ENE
MOS 1 4.3 19:48:44 10° SSE 19:54:23 89° W 20:00:05 10° NNW
Cosmos 1758 Rocket 4.3 19:51:12 10° NNW 19:55:33 56° W 19:59:55 10° S
CZ-4C R/B 2.1 19:50:44 10° SSW 19:55:41 69° SE 20:01:45 10° NE
Cosmos 2026 Rocket 4.1 19:52:04 10° N 19:58:01 54° ENE 20:03:58 10° SSE
Cosmos 2333 4.3 19:52:13 10° NNW 19:58:03 77° ENE 20:03:23 12° SE
Cosmos 2360 Rocket 2.6 19:54:04 10° NW 19:59:42 66° WSW 20:05:17 10° SSE
Cosmos 1833 4.3 19:54:39 10° S 20:00:06 54° ESE 20:05:36 10° NE
SJ-6B 3.8 20:02:41 10° S 20:06:15 43° W 20:09:51 10° NNW
CZ-2C R/B 4.3 20:03:44 10° N 20:08:27 37° WNW 20:13:11 10° SW
SL-16 R/B 4.1 20:06:01 10° NW 20:10:45 28° WSW 20:15:26 10° SSW
Cosmos 1634 Rocket 4.2 20:04:51 10° SSE 20:10:53 50° E 20:16:53 10° NNE
COSMOS 2487 3.1 20:08:05 11° SSE 20:10:54 31° ESE 20:13:58 10° NE
CENTAUR R/B 4.1 20:04:33 10° NW 20:12:09 45° WSW 20:20:23 10° S
USA 215 3.4 20:09:26 15° SE 20:14:59 70° SW 20:21:33 10° WNW
ATLAS 3B R/B 2.9 20:08:19 10° NW 20:15:15 68° NE 20:20:51 18° ESE
ARIANE 5 R/B 3.5 20:14:35 19° ESE 20:17:03 33° ENE 20:21:01 10° N
Terra 3.5 20:15:13 14° E 20:17:34 20° ENE 20:20:59 10° NNE
Cosmos 2058 3.1 20:13:25 10° N 20:17:36 57° ENE 20:20:27 19° SSE
ERS-1 Rocket 4.1 20:15:27 17° ESE 20:18:15 28° ENE 20:22:30 10° N
Cosmos 2219 Rocket 2.2 20:13:32 10° NNW 20:19:16 78° ENE 20:23:34 18° SE
Cosmos 1408 2.7 20:21:36 10° NNW 20:25:10 69° W 20:28:11 14° S
SPOT 1/Viking Rocket 3.8 20:22:47 19° SE 20:26:25 56° ENE 20:31:32 10° N
Exosat Rocket 4.0 20:19:02 10° NNW 20:26:29 78° ENE 20:30:28 20° SE
Cosmos 405 Rocket 3.3 20:23:06 10° N 20:27:00 43° ENE 20:28:48 26° SE
Orbus 7S? 3.9 20:24:47 10° SSW 20:27:32 34° SE 20:32:22 10° ENE
Cosmos 1455 2.1 20:24:28 12° S 20:27:55 64° E 20:31:39 10° NNE
Cosmos 1356 4.1 20:25:27 10° N 20:28:41 37° ENE 20:29:41 29° ESE
BREEZE-M DEB (TANK) 4.2 20:26:13 10° SW 20:29:37 56° SSE 20:39:02 10° ENE
RESURS DK-1 3.4 20:30:11 25° ESE 20:30:11 25° ESE 20:33:36 10° NE
Cosmos 1606 Rocket 4.3 20:26:19 10° SSW 20:30:38 56° WNW 20:34:57 10° N
SPOT 3 Rocket 3.6 20:26:51 13° SSE 20:31:31 84° WSW 20:36:45 10° NNW
Cosmos 405 2.8 20:28:58 10° S 20:32:25 83° E 20:35:55 10° NNE
BREEZE M DEB (TANK) 3.4 20:25:42 10° SW 20:33:58 36° SSE 20:35:25 27° ESE
Spot 2 Rocket 3.8 20:31:08 23° SE 20:34:08 52° ENE 20:39:04 10° N
Cosmos 2251 Rocket 4.0 20:32:43 16° SSE 20:36:31 39° ESE 20:41:27 10° NE
Cosmos 2237 Rocket 2.8 20:34:25 10° NNW 20:39:50 43° NE 20:42:52 24° ESE
ATLAS 5 CENTAUR R/B 2.7 20:36:00 10° WSW 20:39:59 45° NW 20:44:36 10° NE
IGS 5A 3.6 20:37:33 19° S 20:40:30 75° WSW 20:44:40 10° NNW
Cosmos 389 Rocket 3.5 20:42:04 28° E 20:42:04 28° E 20:44:56 10° NNE
Cosmos 1726 Rocket 4.3 20:38:28 10° SSW 20:42:46 53° WNW 20:47:04 10° N
USA 245 3.4 20:42:42 28° SSE 20:44:56 70° ENE 20:48:36 10° N
CZ-2C R/B 3.6 20:44:14 10° NNE 20:48:43 67° ESE 20:51:48 19° S
Landsat 7 4.0 20:46:03 19° S 20:49:28 72° WSW 20:54:15 10° NNW
Cosmos 2333 Rocket 2.7 20:47:24 10° NW 20:53:02 56° WSW 20:56:57 20° S
Meteor 2-1 Rocket 4.2 20:50:06 10° S 20:55:53 80° E 21:01:50 10° NNE
Resurs 01 Rocket 2.6 20:54:28 14° SSW 20:58:06 44° W 21:02:23 10° NNW
Cosmos 2058 Rocket 3.6 20:53:53 10° SSW 20:58:11 59° WNW 21:02:31 10° N
Cosmos 2227 Rocket 3.8 21:00:02 16° E 21:00:02 16° E 21:02:26 10° ENE
SeaSat 1 4.4 20:56:56 10° ENE 20:58:00 13° ENE 20:58:00 13° ENE
NOSS 3-4 (A) 3.6 20:57:47 10° SW 21:03:39 76° NW 21:10:06 10° NE
NOSS 3-4 (C) 3.6 20:57:50 10° SW 21:03:45 76° NW 21:10:13 10° NE
SL-8 R/B 4.0 21:01:19 10° W 21:06:00 52° SSW 21:07:14 41° SSE
Cosmos 2297 Rocket 3.3 21:07:23 24° E 21:07:23 24° E 21:11:17 10° NE
Cosmos 192 4.3 21:03:48 10° NNW 21:08:48 74° ENE 21:10:31 41° SE
Cosmos-2242 3.6 21:14:50 38° E 21:14:50 38° E 21:18:46 10° NNE
Meteor 2-3 Rocket 3.8 21:11:38 10° N 21:17:25 63° ENE 21:19:28 39° SE
ATLAS 2AS CENTAUR R/B 3.0 21:09:34 10° SW 21:17:31 89° NW 21:25:18 10° NE
IRIDIUM 104 4.4 21:15:40 24° S 21:18:52 80° W 21:24:08 10° N
Cosmos 1818 3.7 21:17:27 31° S 21:19:46 51° ESE 21:25:04 10° NE
Cosmos 1812 Rocket 3.5 21:19:21 48° SSE 21:20:29 74° E 21:24:58 10° NNE
Cosmos 1825 4.0 21:18:31 10° NNW 21:21:46 27° W 21:23:54 17° SW
Cosmos 1633 2.4 21:21:35 10° N 21:25:13 90° E 21:25:18 86° SSE
SPOT 5 2.6 21:24:54 52° SSE 21:25:59 87° ENE 21:30:40 10° NNW
H-2A R/B 4.0 21:22:34 10° NNE 21:26:09 41° E 21:26:09 41° E
Cosmos 2344 3.4 21:21:06 10° SW 21:28:31 80° SE 21:36:39 10° NE
Cosmos 1766 Rocket 4.0 21:26:37 10° N 21:30:46 43° ENE 21:30:54 43° E
SL-16 R/B 3.0 21:25:26 10° NNW 21:30:50 41° NE 21:32:47 31° E
COSMOS 2428 3.7 21:27:17 10° NW 21:32:35 40° WSW 21:35:20 25° SSW
Genesis I 4.0 21:29:18 10° NNW 21:33:07 42° NE 21:33:36 40° ENE
Lacrosse 5 rocket 2.5 21:29:36 10° W 21:33:38 45° NNW 21:37:53 10° ENE
Cosmos 1980 3.6 21:28:29 10° NNW 21:34:12 84° WSW 21:35:57 47° SSE
Meteor 2-21 4.5 21:28:29 10° NNW 21:34:32 75° W 21:37:17 34° S
CARTOSAT-1 4.0 21:35:17 42° SSW 21:36:25 55° W 21:40:41 10° NNW
Cosmos 2279 Rocket 4.2 21:31:18 15° SSW 21:36:28 68° WNW 21:42:39 10° N
Cosmos 1076 Rocket 4.5 21:33:17 10° NNW 21:37:26 42° W 21:38:59 30° SW
NOSS 0 Rocket 4.2 21:33:54 10° NW 21:40:00 59° WSW 21:42:20 37° S
CZ-4C R/B 3.7 21:39:35 10° W 21:44:40 39° NNW 21:50:49 10° NE
Cosmos 2151 3.3 21:41:51 10° NNW 21:46:07 61° W 21:46:47 53° SW
Cosmos 909 Rocket 3.9 21:40:14 10° SW 21:46:32 86° SE 21:53:07 10° NE
Cosmos 407 Rocket 3.4 21:47:24 58° ESE 21:47:32 58° ESE 21:52:36 10° NNE
Cosmos 614 Rocket 3.9 21:45:13 34° SSW 21:47:33 84° WNW 21:52:42 10° NNE
Cosmos 1869 4.4 21:48:43 33° NE 21:48:43 33° NE 21:51:23 10° NNE
Timation 2 Rocket 4.4 21:47:57 43° ESE 21:48:14 43° ESE 21:54:12 10° NE
Cosmos 44 3.3 21:47:36 24° SW 21:50:50 86° SE 21:56:17 10° NE
ARIANE 5 R/B 3.9 21:52:07 27° SW 21:53:30 34° W 21:57:32 10° NNW
Terra 1.8 21:54:06 60° SSW 21:54:51 72° WSW 21:59:38 10° NNW
ERS-1 Rocket 3.5 21:55:26 40° SSW 21:56:49 51° W 22:01:44 10° NNW
BREEZE-M DEB (TANK) 3.4 21:49:29 10° W 21:58:51 64° SSW 21:58:54 64° SSW
Cosmos 2266 Rocket 4.2 21:53:06 10° NNW 21:59:27 67° W 22:01:54 39° SSW
Cosmos 2219 Rocket 4.1 21:58:28 10° NW 22:02:36 21° W 22:05:18 15° SW
ATLAS 3B R/B 3.6 21:59:19 10° NW 22:05:41 38° WSW 22:08:06 30° SSW
RESURS DK-1 3.4 22:05:55 24° WSW 22:08:00 45° NW 22:12:01 10° NNE
CRYOSAT 2 4.2 22:14:45 83° S 22:14:56 89° W 22:19:53 10° N
Cosmos 1023 Rocket 4.3 22:18:10 80° SSW 22:18:28 89° WNW 22:23:35 10° NNE
Meteor 2-8 Rocket 4.3 22:20:57 58° S 22:22:18 89° W 22:28:29 10° N
Cosmos 1140 Rocket 3.3 22:22:47 78° SW 22:23:08 86° WNW 22:28:19 10° NNE
Spot 4 4.2 22:23:17 55° ENE 22:23:17 55° ENE 22:27:58 10° N
Cosmos 1862 4.2 22:19:57 10° N 22:22:50 43° NNE 22:22:50 43° NNE
Cosmos 2237 Rocket 2.9 22:18:38 10° NW 22:23:54 41° WSW 22:24:42 39° SW
ATLAS 5 CENTAUR R/B 4.2 22:22:16 10° WNW 22:25:47 21° N 22:29:45 10° NE
Cosmos 1244 Rocket 4.4 22:22:06 10° N 22:28:31 86° E 22:29:36 64° SSE
Cosmos 468 Rocket 3.9 22:30:59 10° NNW 22:36:03 75° NE 22:36:03 75° NE
Cosmos 2082 4.3 22:37:38 42° ENE 22:37:38 42° ENE 22:41:57 10° NE
Cosmos 1190 Rocket 4.0 22:36:43 72° WSW 22:37:07 77° WNW 22:42:22 10° NNE
SeaSat 1 2.4 22:33:07 10° NNE 22:37:46 78° NE 22:37:46 78° NE
Cosmos 1408 Rocket 4.0 22:34:02 10° NNW 22:37:36 58° NNW 22:37:36 58° NNW
SL-08 R/B 4.3 22:34:23 10° N 22:40:34 78° E 22:41:14 70° SE
Cosmos 2227 Rocket 2.0 22:41:47 81° SSW 22:42:07 89° ESE 22:47:50 10° NNE
Cosmos 1553 Rocket 3.9 22:45:00 65° ESE 22:45:13 66° E 22:51:15 10° NNE
Cosmos 2219 3.2 22:45:46 64° WSW 22:46:34 76° WNW 22:52:14 10° NNE
Cosmos 1386 Rocket 4.5 22:40:33 10° N 22:46:37 62° ENE 22:47:05 60° E
Cosmos 841 Rocket 4.0 22:41:48 10° NNW 22:46:54 48° ENE 22:47:03 48° ENE
COSMOS 2455 3.4 22:49:02 44° E 22:49:02 44° E 22:53:43 10° NE
Cosmos 2263 Rocket 4.0 22:49:57 19° ENE 22:49:57 19° ENE 22:52:18 10° NE
USA 229 DEB 4.2 22:42:53 10° NW 22:49:58 59° NE 22:53:15 34° E
USA 229 4.2 22:42:59 10° NW 22:50:03 59° NE 22:53:23 34° E
Cosmos 2297 Rocket 2.4 22:49:07 52° WSW 22:50:22 67° WNW 22:56:02 10° NNE
Cosmos 1743 Rocket 4.2 22:46:18 10° N 22:49:42 52° N 22:49:42 52° N
Cosmos 921 Rocket 4.2 22:47:52 10° N 22:51:31 37° NE 22:51:31 37° NE
Cosmos 676 Rocket 4.0 22:53:55 78° NNE 22:53:55 78° NNE 22:58:46 10° NNE
Cosmos 1417 Rocket 4.4 22:54:47 66° ESE 22:55:08 67° E 23:01:23 10° NNE
Meteor 2-15 Rocket 4.3 22:59:53 72° SW 23:00:30 81° W 23:06:37 10° N
Sich 1 4.2 22:57:27 10° N 23:00:28 36° NNE 23:00:28 36° NNE
Cosmos 1763 Rocket 3.6 22:57:30 10° NNW 23:02:01 65° WNW 23:02:01 65° WNW
Meteor 2-2 Rocket 4.2 23:02:38 81° SW 23:02:53 84° WNW 23:08:40 10° NNE
ALOS 2 3.3 23:04:12 51° N 23:04:12 51° N 23:07:36 10° N
Timation 1 Rocket 4.2 23:05:30 75° E 23:05:30 75° E 23:11:16 10° NE
NOSS 3-1 (A) 4.2 23:00:37 10° NW 23:07:43 66° NE 23:11:15 36° ESE
ATLAS 2AS CENTAUR R/B 4.2 23:02:01 10° W 23:09:24 41° NNW 23:16:31 10° NE
Cosmos 1500 Rocket 4.4 23:07:18 10° NNW 23:10:44 49° NW 23:10:44 49° NW
Lacrosse 5 rocket 2.7 23:09:22 10° WNW 23:13:29 40° N 23:13:54 39° NNE
SL-16 R/B 2.8 23:09:38 10° NW 23:14:39 44° W 23:14:39 44° W
Cosmos 2221 3.6 23:17:57 43° NNW 23:17:57 43° NNW 23:21:09 10° N
USA 281 3.4 23:22:55 52° ESE 23:24:17 64° NE 23:30:48 10° NNW
Thor Agena Rocket 4.3 23:20:59 10° NNE 23:24:51 41° ENE 23:24:51 41° ENE
Cosmos 1741 Rocket 4.3 23:31:07 60° NE 23:31:07 60° NE 23:35:33 10° NNE
Terra 4.4 23:32:59 10° W 23:33:28 11° W 23:34:29 10° WNW
Cosmos 540 Rocket 3.8 23:28:32 10° NNW 23:32:46 58° NW 23:32:46 58° NW
CZ-4C R/B 4.4 23:29:43 10° WNW 23:34:54 28° N 23:40:59 10° ENE
Cosmos 2208 Rocket 4.2 23:29:58 10° NNW 23:34:55 67° NE 23:34:55 67° NE
NOSS 3-1 (C) 3.9 23:29:00 10° NW 23:36:20 76° SW 23:37:38 64° S
Cosmos 1850 Rocket 4.2 23:39:06 65° NNE 23:39:06 65° NNE 23:43:35 10° NNE
Cosmos 1745 Rocket 4.3 23:38:00 10° NNW 23:44:10 55° W 23:44:29 54° WSW
Cosmos 1943 3.2 23:43:02 10° NNW 23:48:13 75° NW 23:48:13 75° NW
COBE Rocket 4.4 23:49:49 55° NNW 23:49:49 55° NNW 23:53:38 10° NNW
Cosmos 1709 Rocket 3.9 23:44:22 10° NNW 23:50:40 79° W 23:50:48 78° WSW
